Weather in Velykopolovetske

Ukraine / Kyiv Region     49°52′08″N   29°56′27″E
temp.,
°C
wind,
m/s
gust,
m/s
humid.,
%
clouds,
%
prec.,
mm/h
press.,
hPa
HPBL,
m
21 january, fri
fri2123:00−1wsw61289100 0.1 1006522
02:00−2w61283100 0.1 1007659
05:00−4w7148171 0.0 1006764
08:00−4w81582100 0.0 1007873
11:00−2w101575100 0.0 10071091
14:00−2w101577100 0.1 10071176
17:00−3w9168096 0.0 1007901
20:00−3w81580100 0.0 1007888
22 january, sat
sat2223:00−3wsw81586100 0.0 1008825
02:00−3w71491100 0.2 1007762
05:00−4w71286100 0.1 1008710
08:00−5w6118798 0.2 1009578
11:00−3w6977100 0.0 1010769
14:00−3w6990100 0.3 1010755
17:00−3w4895100 0.3 1012459
20:00−5nw499493 0.6 1014374
23 january, sun
sun2323:00−6nw4892100 0.0 1016359
02:00−6wnw2695100 0.1 1016295
05:00−6nw2496100 0.2 1017173
08:00−6nne359695 0.3 1020214
11:00−5nne4583100 0.1 1022748
14:00−5nne5682100 0.3 1024730
17:00−7nne488994 0.1 1027368
20:00−8nne499286 0.1 1029390
24 january, mon
mon2423:00−9nne4895100 0.1 1030307
02:00−9n499798 0.1 1031250
05:00−10nnw51195100 0.0 1031304
08:00−9n5129390 0.1 1032361
11:00−7n71383100 0.0 1032471
14:00−5n7138073 0.0 1030657
17:00−6n6128794 0.1 1031557
20:00−7n5109298 0.2 1032446
25 january, tue
tue2523:00−8nnw499597 0.1 1031302
02:00−9nnw379597 0.1 1031271
05:00−9nnw389565 0.1 1030225
08:00−10nw510935 0.1 1030240
11:00−7nnw45795 0.0 1029323
14:00−5nw23735 0.0 1026374
17:00−8wsw23915 0.0 102542
20:00−10wsw368913 0.0 102493